DW2028 Weather Reports


Display with metric or nautical units.
time (UTC)temp
F
wind
direction
speed
MPH
gust
MPH
rain 1hr
in
rain 24hr
in
rain mn
in
humidity
%
barometer
mb
20260508092812 71 66 4.0 7.0 0.00 0.00 0.00 88 1010.9
20260508092315 71 56 1.0 7.0 0.00 0.00 0.00 88 1010.9
20260508091818 71 92 3.0 6.0 0.00 0.00 0.00 88 1010.7
20260508091321 71 84 1.0 6.0 0.00 0.00 0.00 88 1010.7
20260508090824 71 90 2.0 6.0 0.00 0.00 0.00 88 1010.7
20260508090347 71 38 3.0 7.0 0.00 0.00 0.00 88 1010.7
20260508085808 71 91 4.0 7.0 0.00 0.00 0.00 88 1010.7
20260508085334 71 64 2.0 5.0 0.00 0.00 0.00 88 1010.7
20260508084836 71 80 2.0 5.0 0.00 0.00 0.00 88 1010.8
20260508084339 71 350 2.0 4.0 0.00 0.00 0.00 88 1010.8
20260508083842 71 5 2.0 5.0 0.00 0.00 0.00 88 1010.8
20260508083328 71 63 3.0 5.0 0.00 0.00 0.00 88 1010.7
20260508082810 71 51 2.0 7.0 0.00 0.00 0.00 88 1010.7
20260508082318 71 79 3.0 7.0 0.00 0.00 0.00 88 1010.7
20260508081821 71 84 1.0 3.0 0.00 0.00 0.00 88 1010.7
20260508081324 71 55 0.0 3.0 0.00 0.00 0.00 88 1010.7
20260508080807 71 44 2.0 3.0 0.00 0.00 0.00 88 1010.7
20260508080334 71 32 0.0 3.0 0.00 0.00 0.00 88 1010.8
20260508075816 71 19 0.0 3.0 0.00 0.00 0.00 88 1010.8
20260508075319 71 83 1.0 4.0 0.00 0.00 0.00 88 1010.8
20260508074822 71 34 2.0 5.0 0.00 0.00 0.00 88 1011.2
20260508074325 71 51 2.0 5.0 0.00 0.00 0.00 88 1011.2
20260508073828 71 346 1.0 3.0 0.00 0.00 0.00 88 1011.2
20260508073312 71 313 1.0 3.0 0.00 0.00 0.00 88 1010.8
20260508072816 71 9 1.0 3.0 0.00 0.00 0.00 88 1010.8
20260508072324 71 31 2.0 2.0 0.00 0.00 0.00 88 1010.8
20260508071830 71 55 0.0 2.0 0.00 0.00 0.00 88 1010.9
20260508071312 71 76 0.0 3.0 0.00 0.00 0.00 88 1010.9
20260508070815 71 49 1.0 3.0 0.00 0.00 0.00 88 1010.9
20260508070318 71 70 2.0 3.0 0.00 0.00 0.00 88 1011.1
20260508065821 71 69 1.0 4.0 0.00 0.00 0.00 88 1011.1
20260508065324 71 74 1.0 4.0 0.00 0.00 0.00 88 1011.1
20260508064827 71 35 1.0 4.0 0.00 0.00 0.00 88 1011.2
20260508064309 71 5 1.0 2.0 0.00 0.00 0.00 88 1011.2
20260508063812 71 41 0.0 2.0 0.00 0.00 0.00 88 1011.2
20260508063336 71 82 0.0 2.0 0.00 0.00 0.00 88 1011.4
20260508062819 71 82 1.0 1.0 0.00 0.00 0.00 88 1011.4
20260508062323 71 82 0.0 2.0 0.00 0.00 0.00 88 1011.4
20260508061810 71 90 1.0 2.0 0.00 0.00 0.00 87 1011.5
20260508061333 71 115 0.0 2.0 0.00 0.00 0.00 87 1011.5
20260508060816 71 105 1.0 2.0 0.00 0.00 0.00 88 1011.5
20260508060342 71 82 1.0 2.0 0.00 0.00 0.00 88 1011.6
20260508055828 71 82 1.0 2.0 0.00 0.00 0.00 88 1011.6
20260508055311 71 84 2.0 2.0 0.00 0.00 0.00 88 1011.6
20260508054814 71 75 1.0 2.0 0.00 0.00 0.00 87 1011.9
20260508054317 71 77 1.0 2.0 0.00 0.00 0.00 87 1011.9
20260508053820 71 36 1.0 2.0 0.00 0.00 0.00 87 1011.9
20260508053346 71 78 1.0 2.0 0.00 0.00 0.00 87 1011.8
20260508052807 71 78 0.0 2.0 0.00 0.00 0.00 87 1011.8
20260508052314 71 109 1.0 4.0 0.00 0.00 0.00 87 1011.8
20260508051818 71 101 1.0 4.0 0.00 0.00 0.00 87 1012.1
20260508051326 71 103 2.0 2.0 0.00 0.00 0.00 87 1012.1
20260508050808 71 72 2.0 5.0 0.00 0.00 0.00 87 1012.1
20260508050314 71 45 0.0 5.0 0.00 0.00 0.00 87 1012.1
20260508045837 71 48 1.0 4.0 0.00 0.00 0.00 87 1012.1
20260508045320 71 74 2.0 4.0 0.00 0.00 0.00 87 1012.1
20260508044823 71 55 1.0 3.0 0.00 0.00 0.00 87 1012.2
20260508044326 71 50 1.0 4.0 0.00 0.00 0.00 86 1012.2
20260508043809 71 38 0.0 4.0 0.00 0.00 0.00 86 1012.2
20260508043312 72 51 1.0 3.0 0.00 0.00 0.00 86 1012.2
20260508042814 72 71 2.0 7.0 0.00 0.00 0.00 86 1012.2
20260508042339 72 54 2.0 7.0 0.00 0.00 0.00 86 1012.2
20260508041841 72 40 2.0 5.0 0.00 0.00 0.00 86 1012.4
20260508041327 72 63 1.0 5.0 0.00 0.00 0.00 85 1012.4
20260508040814 72 58 2.0 9.0 0.00 0.00 0.00 85 1012.4
20260508040337 73 355 3.0 9.0 0.00 0.00 0.00 85 1012.3
20260508035819 73 39 4.0 5.0 0.00 0.00 0.00 85 1012.3
20260508035345 73 9 2.0 5.0 0.00 0.00 0.00 84 1012.3
20260508034828 73 28 2.0 5.0 0.00 0.00 0.00 84 1012.6
20260508034310 73 44 3.0 6.0 0.00 0.00 0.00 84 1012.6
20260508033813 73 49 3.0 6.0 0.00 0.00 0.00 85 1012.6
20260508033317 73 52 1.0 5.0 0.00 0.00 0.00 85 1012.5
20260508032820 73 22 2.0 7.0 0.00 0.00 0.00 85 1012.5
20260508032324 73 50 4.0 7.0 0.00 0.00 0.00 85 1012.5
20260508031830 73 39 2.0 5.0 0.00 0.00 0.00 85 1012.3
20260508031316 74 11 2.0 5.0 0.00 0.00 0.00 85 1012.3
20260508030820 74 40 3.0 5.0 0.00 0.00 0.00 85 1012.3
20260508030310 74 26 1.0 4.0 0.00 0.00 0.00 85 1012.2
20260508025813 74 23 2.0 3.0 0.00 0.00 0.00 85 1012.2
20260508025316 74 355 1.0 2.0 0.00 0.00 0.00 85 1012.2
20260508024839 74 97 0.0 2.0 0.00 0.00 0.00 85 1012.2
20260508024322 74 84 0.0 2.0 0.00 0.00 0.00 84 1012.2
20260508023827 74 59 0.0 2.0 0.00 0.00 0.00 84 1012.2
20260508023310 74 26 0.0 2.0 0.00 0.00 0.00 84 1012.2
20260508022813 74 26 1.0 2.0 0.00 0.00 0.00 84 1012.2
20260508022316 74 81 0.0 3.0 0.00 0.00 0.00 84 1012.2
20260508021819 74 80 1.0 4.0 0.00 0.00 0.00 84 1011.7
20260508021323 74 46 2.0 4.0 0.00 0.00 0.00 84 1011.7
20260508020809 74 88 1.0 4.0 0.00 0.00 0.00 84 1011.7
20260508020320 74 62 3.0 4.0 0.00 0.00 0.00 84 1011.7
20260508015825 74 46 1.0 3.0 0.00 0.00 0.00 84 1011.7
20260508015328 74 338 1.0 3.0 0.00 0.00 0.00 84 1011.7
20260508014811 74 23 1.0 3.0 0.00 0.00 0.00 84 1011.4
20260508014337 75 355 0.0 2.0 0.00 0.00 0.00 84 1011.4
20260508013820 75 78 0.0 2.0 0.00 0.00 0.00 84 1011.4
20260508013323 75 72 1.0 2.0 0.00 0.00 0.00 84 1011.4
20260508012827 75 67 0.0 2.0 0.00 0.00 0.00 84 1011.4
20260508012310 75 35 1.0 3.0 0.00 0.00 0.00 84 1011.4
20260508011813 75 70 1.0 3.0 0.00 0.00 0.00 84 1011.1
20260508011316 75 45 0.0 5.0 0.00 0.00 0.00 84 1011.1
20260508010820 75 45 1.0 6.0 0.00 0.00 0.00 84 1011.1
20260508010328 75 48 3.0 6.0 0.00 0.00 0.00 84 1011.2
20260508005811 75 5 1.0 5.0 0.00 0.00 0.00 84 1011.2
20260508005314 75 35 2.0 5.0 0.00 0.00 0.00 83 1011.2
20260508004818 75 355 2.0 3.0 0.00 0.00 0.00 83 1010.9
20260508004321 75 26 1.0 5.0 0.00 0.00 0.00 83 1010.9
20260508003827 75 35 3.0 5.0 0.00 0.00 0.00 83 1010.9
20260508003310 75 57 1.0 3.0 0.00 0.00 0.00 83 1011.0
20260508002832 76 47 1.0 3.0 0.00 0.00 0.00 83 1011.0
20260508002314 76 35 1.0 4.0 0.00 0.00 0.00 83 1011.0
20260508001838 76 99 1.0 5.0 0.00 0.00 0.00 83 1011.0
20260508001319 76 12 2.0 5.0 0.00 0.00 0.00 82 1011.0
20260508000823 76 35 0.0 4.0 0.00 0.00 0.00 82 1011.0
20260508000312 76 32 1.0 4.0 0.00 0.00 0.00 82 1011.0
20260507235815 76 30 0.0 4.0 0.00 0.00 0.00 82 1011.0
20260507235319 76 5 1.0 4.0 0.00 0.00 0.00 82 1011.0
20260507234843 76 12 2.0 4.0 0.00 0.00 0.00 82 1011.0
20260507234326 76 14 2.0 4.0 0.00 0.00 0.00 82 1011.0
20260507233828 76 14 1.0 3.0 0.00 0.00 0.00 81 1011.0
20260507233311 76 5 1.0 5.0 0.00 0.00 0.00 81 1010.9
20260507232818 76 19 1.0 5.0 0.00 0.00 0.00 81 1010.9
20260507232321 76 47 1.0 6.0 0.00 0.00 0.00 81 1010.9
20260507231824 76 355 4.0 6.0 0.00 0.00 0.00 81 1010.7
20260507231327 76 45 4.0 7.0 0.00 0.00 0.00 81 1010.7
20260507230809 76 36 3.0 7.0 0.00 0.00 0.00 81 1010.7
20260507230332 76 42 2.0 4.0 0.00 0.00 0.00 81 1011.1
20260507225819 76 9 1.0 4.0 0.00 0.00 0.00 82 1011.1
20260507225323 76 26 0.0 4.0 0.00 0.00 0.00 81 1011.1
20260507224827 76 38 1.0 4.0 0.00 0.00 0.00 81 1011.0
20260507224309 76 5 1.0 4.0 0.00 0.00 0.00 81 1011.0
20260507223812 76 355 3.0 4.0 0.00 0.00 0.00 81 1011.0
20260507223315 76 344 1.0 4.0 0.00 0.00 0.00 81 1010.7
20260507222818 76 38 3.0 4.0 0.00 0.00 0.00 81 1010.7
20260507222324 76 355 2.0 5.0 0.00 0.00 0.00 82 1010.7
20260507221810 76 360 1.0 5.0 0.00 0.00 0.00 82 1010.6
20260507221314 76 336 1.0 3.0 0.00 0.00 0.00 82 1010.6
20260507220820 75 46 0.0 3.0 0.00 0.00 0.00 83 1010.6
20260507220327 75 348 1.0 3.0 0.00 0.00 0.00 82 1010.7
20260507215809 75 11 1.0 3.0 0.00 0.00 0.00 82 1010.7
20260507215333 75 36 1.0 3.0 0.00 0.00 0.00 82 1010.7
20260507214836 75 14 1.0 3.0 0.00 0.00 0.00 83 1010.6
20260507214319 74 342 2.0 3.0 0.00 0.00 0.00 83 1010.6
20260507213823 74 36 3.0 4.0 0.00 0.00 0.00 83 1010.6
20260507213326 74 40 2.0 4.0 0.00 0.00 0.00 83 1010.6
20260507212808 74 5 1.0 4.0 0.00 0.00 0.00 83 1010.6
20260507212314 74 314 1.0 4.0 0.00 0.00 0.00 83 1010.6
20260507211818 74 5 1.0 4.0 0.00 0.00 0.00 84 1010.9
20260507211321 73 61 2.0 4.0 0.00 0.00 0.00 85 1010.9
20260507210845 73 71 2.0 3.0 0.00 0.00 0.00 84 1010.9
20260507210306 73 33 2.0 4.0 0.00 0.00 0.00 84 1010.8
20260507205833 73 40 2.0 4.0 0.00 0.00 0.00 85 1010.8
20260507205322 73 90 1.0 4.0 0.00 0.00 0.00 85 1010.8
20260507204806 73 50 2.0 4.0 0.00 0.00 0.00 84 1011.0
20260507204333 73 74 2.0 4.0 0.00 0.00 0.00 84 1011.0
20260507203836 73 5 2.0 6.0 0.00 0.00 0.00 84 1011.0
20260507203322 73 16 3.0 6.0 0.00 0.00 0.00 84 1011.0
20260507202825 73 351 3.0 6.0 0.00 0.00 0.00 84 1011.0
20260507202328 73 38 1.0 5.0 0.00 0.00 0.00 85 1011.0
20260507201810 73 360 1.0 6.0 0.00 0.00 0.00 85 1011.1
20260507201313 73 13 3.0 7.0 0.00 0.00 0.00 85 1011.1
20260507200816 73 5 4.0 7.0 0.00 0.00 0.00 85 1011.1
20260507200319 73 9 2.0 6.0 0.00 0.00 0.00 85 1011.1
20260507195825 73 360 1.0 4.0 0.00 0.00 0.00 85 1011.1
20260507195312 73 32 2.0 4.0 0.00 0.00 0.00 85 1011.1
20260507194816 73 305 2.0 6.0 0.00 0.00 0.00 85 1011.1
20260507194319 73 52 3.0 6.0 0.00 0.00 0.00 85 1011.1
20260507193823 73 14 3.0 5.0 0.00 0.00 0.00 85 1011.1
20260507193327 73 53 1.0 4.0 0.00 0.00 0.00 86 1011.2
20260507192810 72 5 2.0 6.0 0.00 0.00 0.00 85 1011.2
20260507192313 72 51 2.0 7.0 0.00 0.00 0.00 86 1011.2
20260507191816 72 32 4.0 7.0 0.00 0.00 0.00 86 1011.4
20260507191322 72 342 3.0 6.0 0.00 0.00 0.00 86 1011.4
20260507190825 72 34 4.0 6.0 0.00 0.00 0.00 86 1011.4
20260507190347 72 305 3.0 5.0 0.00 0.00 0.00 86 1011.5
20260507185809 72 33 3.0 5.0 0.00 0.00 0.00 87 1011.5
20260507185319 72 25 2.0 6.0 0.00 0.00 0.00 87 1011.5
20260507184822 72 42 4.0 6.0 0.00 0.00 0.00 88 1011.6
20260507184346 72 331 2.0 7.0 0.00 0.00 0.00 88 1011.6
20260507183829 72 324 1.0 7.0 0.00 0.00 0.00 88 1011.6
20260507183312 71 300 1.0 6.0 0.00 0.00 0.00 89 1011.7
20260507182816 71 49 4.0 7.0 0.00 0.00 0.00 89 1011.7
20260507182320 71 36 2.0 7.0 0.00 0.00 0.00 89 1011.7
20260507181823 71 355 1.0 6.0 0.00 0.00 0.00 90 1012.0
20260507181309 71 32 2.0 7.0 0.00 0.00 0.00 90 1012.0
20260507180815 70 36 3.0 7.0 0.00 0.00 0.00 90 1012.0
20260507180319 70 19 2.0 5.0 0.00 0.00 0.00 90 1012.1
20260507175821 70 355 2.0 6.0 0.00 0.00 0.00 90 1012.1
20260507175329 70 46 4.0 6.0 0.00 0.00 0.00 89 1012.1
20260507174811 70 309 2.0 6.0 0.00 0.00 0.00 89 1011.9
20260507174334 70 22 3.0 5.0 0.00 0.00 0.00 90 1011.9
20260507173817 70 28 3.0 6.0 0.00 0.00 0.00 90 1011.9
20260507173324 70 355 2.0 7.0 0.00 0.00 0.00 90 1012.1
20260507172807 70 39 5.0 7.0 0.00 0.00 0.00 90 1012.1
20260507172313 70 38 3.0 6.0 0.00 0.00 0.00 90 1012.1
20260507171817 70 10 4.0 6.0 0.00 0.00 0.00 90 1012.2
20260507171320 70 30 4.0 7.0 0.00 0.00 0.00 89 1012.2
20260507170823 71 17 3.0 10.0 0.00 0.00 0.00 89 1012.2
20260507170305 71 27 3.0 10.0 0.00 0.00 0.00 88 1012.2
20260507165817 71 313 4.0 7.0 0.00 0.00 0.00 88 1012.2
20260507165320 72 341 4.0 10.0 0.00 0.00 0.00 88 1012.2
20260507164823 72 36 2.0 10.0 0.00 0.00 0.00 87 1012.2
20260507164325 72 340 3.0 10.0 0.00 0.00 0.00 88 1012.2
20260507163828 72 355 2.0 7.0 0.00 0.00 0.00 89 1012.2
20260507163311 72 355 2.0 7.0 0.00 0.00 0.00 89 1012.2
20260507162815 72 344 3.0 9.0 0.00 0.00 0.00 89 1012.2
20260507162319 72 9 3.0 9.0 0.00 0.00 0.00 90 1012.2
20260507161823 71 16 5.0 9.0 0.00 0.00 0.00 90 1012.1
20260507161326 71 13 3.0 5.0 0.00 0.00 0.00 91 1012.1
20260507160811 71 40 3.0 5.0 0.00 0.00 0.00 92 1012.1
20260507160318 71 38 1.0 5.0 0.00 0.00 0.00 92 1012.2
20260507155825 71 19 3.0 6.0 0.00 0.00 0.00 91 1012.2
20260507155310 71 53 2.0 6.0 0.00 0.00 0.00 91 1012.2
20260507154813 71 29 2.0 6.0 0.00 0.00 0.00 92 1012.1
20260507154316 71 20 4.0 6.0 0.00 0.00 0.00 92 1012.1
20260507153818 71 29 4.0 7.0 0.00 0.00 0.00 92 1012.1
20260507153342 71 5 4.0 7.0 0.00 0.00 0.00 92 1012.1
20260507152824 71 15 4.0 6.0 0.00 0.00 0.00 92 1012.1
20260507152328 71 49 2.0 6.0 0.00 0.00 0.00 92 1012.1
20260507151811 72 325 2.0 7.0 0.00 0.00 0.00 92 1012.1
20260507151315 72 83 4.0 7.0 0.00 0.00 0.00 92 1012.1
20260507150819 72 60 2.0 7.0 0.00 0.00 0.00 92 1012.1
20260507150341 72 351 3.0 7.0 0.00 0.00 0.00 92 1012.0
20260507145810 72 25 4.0 8.0 0.00 0.00 0.00 91 1012.0
20260507145313 72 340 5.0 6.0 0.00 0.00 0.00 91 1012.0
20260507144817 72 36 2.0 5.0 0.00 0.00 0.00 92 1011.8
20260507144321 72 318 2.0 5.0 0.00 0.00 0.00 92 1011.8
20260507143823 72 51 2.0 5.0 0.00 0.00 0.00 92 1011.8
20260507143347 73 355 3.0 6.0 0.00 0.00 0.00 92 1011.7
20260507142811 73 59 1.0 6.0 0.00 0.00 0.00 92 1011.7
20260507142318 73 15 3.0 6.0 0.00 0.00 0.00 91 1011.7
20260507141842 73 11 4.0 6.0 0.00 0.00 0.00 91 1011.6
20260507141325 74 5 4.0 5.0 0.00 0.00 0.00 91 1011.6
20260507140810 74 5 2.0 7.0 0.00 0.00 0.00 90 1011.6
20260507140313 75 19 4.0 7.0 0.00 0.00 0.00 89 1011.5
20260507135820 76 35 4.0 11.0 0.00 0.00 0.00 88 1011.5
20260507135326 77 328 3.0 11.0 0.00 0.00 0.00 89 1011.5
20260507134829 78 311 1.0 3.0 0.00 0.00 0.00 91 1011.2
20260507134315 78 273 0.0 1.0 0.00 0.00 0.00 92 1011.2
20260507133819 78 273 0.0 2.0 0.00 0.00 0.00 91 1011.2
20260507133325 78 210 0.0 3.0 0.00 0.00 0.00 91 1011.1
20260507132828 78 254 1.0 3.0 0.00 0.00 0.00 91 1011.1
20260507132310 78 173 0.0 2.0 0.00 0.00 0.00 91 1011.1
20260507131814 78 218 0.0 2.0 0.00 0.00 0.00 91 1011.2
20260507131318 78 221 0.0 2.0 0.00 0.00 0.00 91 1011.2
20260507130822 78 217 0.0 2.0 0.00 0.00 0.00 91 1011.2
20260507130312 78 282 0.0 2.0 0.00 0.00 0.00 91 1011.1
20260507125816 78 248 0.0 2.0 0.00 0.00 0.00 91 1011.1
20260507125319 78 244 0.0 2.0 0.00 0.00 0.00 91 1011.1
20260507124822 78 252 0.0 1.0 0.00 0.00 0.00 91 1010.8
20260507124325 77 238 0.0 3.0 0.00 0.00 0.00 91 1010.8
20260507123810 77 225 0.0 3.0 0.00 0.00 0.00 91 1010.8
20260507123313 77 232 1.0 2.0 0.00 0.00 0.00 91 1010.6
20260507122816 77 192 0.0 2.0 0.00 0.00 0.00 91 1010.6
20260507122319 77 229 0.0 2.0 0.00 0.00 0.00 92 1010.6
20260507121823 77 207 0.0 2.0 0.00 0.00 0.00 92 1010.5
20260507121326 77 209 0.0 1.0 0.00 0.00 0.00 92 1010.5
20260507120813 77 245 0.0 2.0 0.00 0.00 0.00 92 1010.5
20260507120317 77 246 0.0 3.0 0.00 0.00 0.00 92 1010.1
20260507115824 77 239 1.0 3.0 0.00 0.00 0.00 92 1010.1
20260507115307 77 220 0.0 2.0 0.00 0.00 0.00 92 1010.1
20260507114813 77 190 0.0 2.0 0.00 0.00 0.00 92 1010.0
20260507114319 77 190 0.0 2.0 0.00 0.00 0.00 92 1010.0
20260507113822 77 190 0.0 2.0 0.00 0.00 0.00 92 1010.0
20260507113325 77 190 0.0 2.0 0.00 0.00 0.00 92 1009.8
20260507112828 77 231 0.0 1.0 0.00 0.00 0.00 92 1009.8
20260507112311 77 263 0.0 1.0 0.00 0.00 0.00 91 1009.8
20260507111814 77 191 0.0 2.0 0.00 0.00 0.00 91 1009.5
20260507111321 77 190 0.0 2.0 0.00 0.00 0.00 91 1009.5
20260507110825 77 178 0.0 1.0 0.00 0.00 0.00 91 1009.5
20260507110329 77 218 0.0 2.0 0.00 0.00 0.00 91 1009.5
20260507105812 77 234 0.0 2.0 0.00 0.00 0.00 91 1009.5
20260507105316 77 202 0.0 2.0 0.00 0.00 0.00 90 1009.5
20260507104820 77 202 0.0 2.0 0.00 0.00 0.00 90 1009.5
20260507104343 77 215 0.0 2.0 0.00 0.00 0.00 90 1009.5
20260507103825 77 223 0.0 2.0 0.00 0.00 0.00 90 1009.5
20260507103328 77 246 0.0 2.0 0.00 0.00 0.00 90 1009.2
20260507102810 77 236 0.0 2.0 0.00 0.00 0.00 90 1009.2
20260507102313 77 175 0.0 2.0 0.00 0.00 0.00 90 1009.2
20260507101819 77 275 0.0 2.0 0.00 0.00 0.00 90 1009.1
20260507101326 77 275 0.0 2.0 0.00 0.00 0.00 90 1009.1
20260507100809 77 184 0.0 2.0 0.00 0.00 0.00 90 1009.1
20260507100333 77 219 0.0 2.0 0.00 0.00 0.00 89 1009.1
20260507095816 77 263 0.0 2.0 0.00 0.00 0.00 89 1009.1
20260507095323 77 269 1.0 2.0 0.00 0.00 0.00 89 1009.1
20260507094827 77 215 0.0 2.0 0.00 0.00 0.00 89 1009.0
20260507094310 77 254 0.0 2.0 0.00 0.00 0.00 89 1009.0
20260507093833 77 214 0.0 2.0 0.00 0.00 0.00 89 1009.0
20260507093335 77 184 0.0 1.0 0.00 0.00 0.00 89 1009.0